HST 1 20580U 90037B 25340.32599986 .00011592 00000+0 40507-3 0 9995 2 20580 28.4701 316.1394 0001969 164.3543 195.7113 15.27913744759019 POLAR 1 23802U 96013A 25335.86121764 .00000137 00000+0 00000+0 0 9996 2 23802 79.6185 229.2704 6274469 215.7594 78.7365 1.29846141142290 SWAS 1 25560U 98071A 25340.36276423 .00007309 00000+0 48169-3 0 9999 2 25560 69.8974 4.1796 0007212 223.7623 136.2969 15.07874940468185 CXO 1 25867U 99040B 25341.32747404 .00000528 00000+0 00000+0 0 9999 2 25867 52.9844 122.6350 8152013 310.8652 359.9323 0.37803920 16593 XMM-NEWTON 1 25989U 99066A 25340.88365356 .00000037 00000+0 00000+0 0 9999 2 25989 65.4618 285.5211 4745865 68.3086 0.1961 0.50131828 22042 TERRA 1 25994U 99068A 25340.93365674 .00000956 00000+0 20421-3 0 9999 2 25994 97.9756 32.8310 0003504 109.6003 63.3750 14.60942360381531 CLUSTER II-FM7 (SAMBA) 1 26410U 00041A 25341.20638592 .00002699 00000+0 00000+0 0 9992 2 26410 147.5442 24.6945 8748092 240.3658 0.1717 0.44848431 19459 CLUSTER II-FM8 (TANGO) 1 26464U 00045B 25342.01689451 .00002625 00000+0 00000+0 0 9994 2 26464 147.8405 25.3442 8756376 240.8888 0.0021 0.44416966 19455 ODIN 1 26702U 01007A 25340.90177310 .00048862 00000+0 84552-3 0 9991 2 26702 97.4225 8.6444 0004853 122.6369 237.5352 15.50781631359420 TIMED 1 26998U 01055B 25340.95484261 .00003189 00000+0 29764-3 0 9999 2 26998 74.0700 261.9059 0001358 224.3917 135.7158 14.94656450302099 CORIOLIS 1 27640U 03001A 25340.96427238 .00000227 00000+0 12721-3 0 9994 2 27640 98.7140 345.7885 0014784 49.4277 310.8183 14.19868783186944 SORCE 1 27651U 03004A 25340.85440878 .00006167 00000+0 46956-3 0 9998 2 27651 39.9912 277.9046 0015161 110.5107 249.7315 15.02213562242950 MOST 1 27843U 03031D 25340.95459988 .00000185 00000+0 10504-3 0 9998 2 27843 98.7066 346.3585 0010954 87.9979 272.2453 14.21267789163400 SCISAT 1 1 27858U 03036A 25340.94991774 .00001335 00000+0 17646-3 0 9994 2 27858 73.9293 193.2088 0008453 295.8094 64.2210 14.81105730202989 SWIFT 1 28485U 04047A 25340.94761442 .00054256 00000+0 91230-3 0 9992 2 28485 20.5525 207.9920 0003339 186.0055 174.0348 15.50003295156818 HINODE (SOLAR-B) 1 29479U 06041A 25340.96529739 .00001424 00000+0 25485-3 0 9993 2 29479 98.0652 354.8918 0017654 173.8074 186.3353 14.68287801 26668 SHIJIAN-6 02A (SJ-6 02A) 1 29505U 06046A 25340.91014727 .00011672 00000+0 64293-3 0 9995 2 29505 97.6624 15.6149 0004816 85.4619 274.7163 15.14168626 43147 SHIJIAN-6 02B (SJ-6 02B) 1 29506U 06046B 25340.95296188 .00003150 00000+0 25424-3 0 9998 2 29506 97.6872 6.6055 0014583 356.1422 3.9687 15.00500079 41903 FGRST (GLAST) 1 33053U 08029A 25340.70756343 .00005382 00000+0 21141-3 0 9991 2 33053 25.5821 99.6616 0008082 213.8115 146.1908 15.22531385966459 SDO 1 36395U 10005A 25340.29939984 -.00000084 00000+0 00000+0 0 9990 2 36395 34.2480 89.2844 0001344 133.9883 217.9539 1.00269682 58127 CRYOSAT 2 1 36508U 10013A 25340.93255770 .00000412 00000+0 10158-3 0 9993 2 36508 92.0264 230.7641 0002248 93.5366 266.6098 14.51899053830180 X-SAT 1 37389U 11015C 25340.92802856 .00000284 00000+0 13837-3 0 9990 2 37389 98.3305 322.3611 0013901 182.8373 177.2731 14.25125711760295 GCOM-W1 (SHIZUKU) 1 38337U 12025A 25340.81898825 .00001350 00000+0 30964-3 0 9990 2 38337 98.2205 279.1038 0001491 71.3848 309.5254 14.57111498721029 NUSTAR 1 38358U 12031A 25341.00002315 .00006963 00000+0 40451-3 0 9990 2 38358 6.0284 33.2276 0007454 139.8611 137.2409 15.06298332 1300 NEOSSAT 1 39089U 13009D 25340.86904000 .00000407 00000+0 15543-3 0 9994 2 39089 98.4076 160.5436 0012121 98.9486 261.3072 14.35725492669140 BRITE-AUSTRIA 1 39091U 13009F 25340.96265267 .00000458 00000+0 17060-3 0 9995 2 39091 98.3889 160.2320 0011353 93.8234 266.4251 14.36430740669453 IRIS 1 39197U 13033A 25340.87207784 .00003146 00000+0 37137-3 0 9993 2 39197 97.9390 175.6759 0023661 226.2053 133.7205 14.85244316671829 HISAKI (SPRINT-A) 1 39253U 13049A 25340.82985243 .00000140 00000+0 98046-4 0 9999 2 39253 29.7192 117.9456 0136953 257.4721 101.0500 13.55520328605307 CASSIOPE 1 39265U 13055A 25340.94317460 .00064208 13264-6 86051-3 0 9992 2 39265 80.9255 297.7947 0344471 344.4490 14.6348 15.10775920638495 STSAT-3 1 39422U 13066G 25340.92724355 .00006851 00000+0 53552-3 0 9999 2 39422 97.5994 309.4220 0014622 333.8959 26.1527 15.01313852655345 SWARM B 1 39451U 13067A 25340.96280607 .00006167 00000+0 23195-3 0 9993 2 39451 87.7447 40.6095 0003318 88.5019 271.6610 15.26952924653890 SWARM A 1 39452U 13067B 25340.93048208 .00016455 00000+0 33327-3 0 9999 2 39452 87.3361 127.4028 0002292 88.2714 271.8807 15.46288347676495 SWARM C 1 39453U 13067C 25340.86566294 .00017721 00000+0 35897-3 0 9993 2 39453 87.3359 126.0120 0002284 88.5858 271.5663 15.46284917676445 BRITE-CA1 (TORONTO) 1 40020U 14033L 25340.93096666 .00002816 00000+0 43308-3 0 9993 2 40020 97.9492 108.7927 0079533 171.5565 188.7003 14.72181277613927 OCO 2 1 40059U 14035A 25340.88021062 .00001120 00000+0 25843-3 0 9990 2 40059 98.2208 279.9096 0000908 67.0329 293.0966 14.57151142608049 BRITE-PL2 (HEWELIUSZ) 1 40119U 14049B 25340.83850146 .00004468 00000+0 42783-3 0 9990 2 40119 97.8999 86.6741 0014852 32.5510 327.6622 14.93612407612729 MMS 1 1 40482U 15011A 25341.00002315 -.00000575 00000+0 00000+0 0 9998 2 40482 69.2012 351.5922 8506714 163.2735 135.8048 0.28348457 1365 MMS 2 1 40483U 15011B 25341.00002315 -.00000575 00000+0 00000+0 0 9999 2 40483 69.1988 351.5828 8508164 163.2902 135.7717 0.28348461 1366 MMS 3 1 40484U 15011C 25341.00002315 -.00000575 00000+0 00000+0 0 9990 2 40484 69.2033 351.5993 8508117 163.2860 135.7673 0.28348462 1365 MMS 4 1 40485U 15011D 25341.00002315 -.00000575 00000+0 00000+0 0 9991 2 40485 69.2003 351.5927 8509343 163.2738 135.7985 0.28348087 1354 ASTROSAT 1 40930U 15052A 25340.32378042 .00003152 00000+0 30545-3 0 9992 2 40930 5.9964 103.0984 0007824 164.7540 195.2824 14.81990632551166 DAMPE 1 41173U 15078A 25340.94933742 .00002635 00000+0 92852-4 0 9997 2 41173 97.4542 340.5805 0013374 44.3164 315.9144 15.30127631555140 PISAT 1 41784U 16059B 25340.96155898 .00002201 00000+0 38531-3 0 9997 2 41784 97.8156 344.7788 0030719 99.1900 261.2783 14.68473268491520 HXMT (HUIYAN) 1 42758U 17034A 25340.92770590 .00005792 00000+0 30283-3 0 9995 2 42758 43.0121 171.8795 0032309 6.0769 354.0465 15.16176088468459 FLYING LAPTOP 1 42831U 17042G 25340.93123500 .00005780 00000+0 46998-3 0 9997 2 42831 97.4218 139.8187 0015055 67.6977 292.5842 14.99848414457624 ZHANGHENG 1-01 (CSES-1) 1 43194U 18015C 25340.94971133 .00015557 00000+0 70667-3 0 9998 2 43194 97.6654 138.0251 0017784 226.2966 133.6797 15.20723987435428 SALSAT 1 46495U 20068K 25340.95890522 .00012794 00000+0 49717-3 0 9991 2 46495 97.8780 327.9198 0008644 253.9020 106.1265 15.26175245286006 IXPE 1 49954U 21121A 25341.00002315 .00015398 00000+0 91583-3 0 9998 2 49954 0.2310 328.9702 0007612 53.4000 83.3098 15.07873363 5535